San Carlos, CA

7:08 AM PDT on May 23, 2017 (GMT -0700)
San Carlos

Weather History for KSQL - March, 2013

Change the Weather History Date:

Sunday, March 24, 2013

  Actual Average Record
Temperature  
Mean Temperature 56 °F -  
Max Temperature 66 °F 67 °F 83 °F (1970)
Min Temperature 46 °F 43 °F 37 °F (1957)
Degree Days  
Heating Degree Days 9    
Growing Degree Days 6 (Base 50)    
Moisture  
Dew Point 41 °F    
Average Humidity 68    
Maximum Humidity 81    
Minimum Humidity 46    
Precipitation  
Precipitation 0.00 in - - ()
Sea Level Pressure  
Sea Level Pressure 30.07 in    
Wind  
Wind Speed 2 mph (NW)    
Max Wind Speed 13 mph    
Max Gust Speed -    
Visibility 10 miles    
Events      
Averages and records for this station are not official NWS values.
T = Trace of Precipitation, MM = Missing Value Source: NWS Daily Summary

Daily Weather History Graph

Daily Weather History Graph

Search for Another Location

Airport or City:

Trip Planner

Search our weather history database for the weather conditions in past years. The results will help you decide how hot, cold, wet, or windy it might be!

Date:

Astronomy

Mar. 24, 2013 Rise Set
Actual Time 7:05 AM PDT 7:24 PM PDT
Civil Twilight 6:39 AM PDT 7:51 PM PDT
Nautical Twilight 6:09 AM PDT 8:21 PM PDT
Astronomical Twilight 5:38 AM PDT 8:52 PM PDT
Moon 5:01 PM PDT (3/24) 5:16 AM PDT (3/24)
Length of Visible Light 13h 11m
Length of Day
12h 18m
Waxing Gibbous, 92% of the Moon is Illuminated
Mar 24
Waxing Gibbous
Mar 27
Full
Apr 2
Last Quarter
Apr 10
New
Apr 18
First Quarter

Hourly Weather History & Observations

Time (PDT) Temp. Dew Point Humidity Pressure Visibility Wind Dir Wind Speed Gust Speed Precip Events Conditions
12:10 AM 50.0 °F 39.2 °F 66% 30.10 in 10.0 mi Calm Calm - N/A   Clear
12:30 AM 50.0 °F 39.2 °F 66% 30.09 in 10.0 mi Calm Calm - N/A   Clear
12:55 AM 50.0 °F 39.2 °F 66% 30.10 in 10.0 mi Calm Calm - N/A   Clear
1:10 AM 50.0 °F 39.2 °F 66% 30.10 in 10.0 mi NW 4.6 mph - N/A   Clear
1:30 AM 50.0 °F 39.2 °F 66% 30.10 in 10.0 mi NW 4.6 mph - N/A   Clear
1:55 AM 50.0 °F 39.2 °F 66% 30.09 in 10.0 mi Calm Calm - N/A   Clear
2:10 AM 50.0 °F 39.2 °F 66% 30.10 in 10.0 mi Calm Calm - N/A   Clear
2:30 AM 48.2 °F 41.0 °F 76% 30.09 in 10.0 mi Calm Calm - N/A   Clear
2:55 AM 48.2 °F 41.0 °F 76% 30.09 in 10.0 mi Calm Calm - N/A   Clear
3:10 AM 48.2 °F 41.0 °F 76% 30.09 in 10.0 mi Calm Calm - N/A   Clear
3:30 AM 48.2 °F 39.2 °F 71% 30.09 in 10.0 mi Calm Calm - N/A   Clear
3:50 AM 48.2 °F 41.0 °F 76% 30.09 in 10.0 mi Calm Calm - N/A   Clear
4:10 AM 46.4 °F 39.2 °F 76% 30.09 in 10.0 mi Calm Calm - N/A   Clear
4:30 AM 46.4 °F 39.2 °F 76% 30.08 in 10.0 mi Calm Calm - N/A   Clear
4:50 AM 46.4 °F 39.2 °F 76% 30.08 in 10.0 mi Calm Calm - N/A   Clear
5:15 AM 46.4 °F 41.0 °F 81% 30.09 in 10.0 mi Calm Calm - N/A   Clear
5:30 AM 46.4 °F 39.2 °F 76% 30.09 in 10.0 mi Calm Calm - N/A   Clear
5:50 AM 46.4 °F 39.2 °F 76% 30.09 in 10.0 mi Calm Calm - N/A   Clear
6:15 AM 46.4 °F 39.2 °F 76% 30.09 in 10.0 mi Calm Calm - N/A   Clear
6:30 AM 46.4 °F 41.0 °F 81% 30.09 in 10.0 mi Calm Calm - N/A   Clear
6:47 AM 46.4 °F 39.2 °F 76% 30.09 in 10.0 mi Calm Calm - N/A   Partly Cloudy
6:50 AM 46.4 °F 39.2 °F 76% 30.09 in 10.0 mi Calm Calm - N/A   Clear
7:47 AM 46.4 °F 41.0 °F 81% 30.10 in 10.0 mi Calm Calm - N/A   Scattered Clouds
8:47 AM 50.0 °F 42.8 °F 76% 30.11 in 10.0 mi Calm Calm - N/A   Scattered Clouds
9:47 AM 53.6 °F 44.6 °F 72% 30.11 in 10.0 mi Calm Calm - N/A   Scattered Clouds
10:47 AM 55.4 °F 44.6 °F 67% 30.11 in 10.0 mi ENE 4.6 mph - N/A   Scattered Clouds
11:53 AM 57.2 °F 46.4 °F 67% 30.10 in 10.0 mi NE 4.6 mph - N/A   Partly Cloudy
12:47 PM 59.0 °F 48.2 °F 67% 30.08 in 10.0 mi NNW 9.2 mph - N/A   Partly Cloudy
1:57 PM 64.4 °F 48.2 °F 56% 30.06 in 10.0 mi North 10.4 mph - N/A   Partly Cloudy
2:47 PM 64.4 °F 46.4 °F 52% 30.04 in 10.0 mi North 9.2 mph - N/A   Partly Cloudy
3:47 PM 66.2 °F 46.4 °F 49% 30.02 in 10.0 mi NNW 10.4 mph - N/A   Partly Cloudy
4:47 PM 66.2 °F 44.6 °F 46% 30.00 in 10.0 mi West 9.2 mph - N/A   Partly Cloudy
5:53 PM 64.4 °F 44.6 °F 49% 29.99 in 10.0 mi West 9.2 mph - N/A   Scattered Clouds
6:47 PM 59.0 °F 41.0 °F 51% 29.99 in 10.0 mi WNW 12.7 mph - N/A   Scattered Clouds
7:47 PM 55.4 °F 41.0 °F 58% 29.99 in 10.0 mi NW 8.1 mph - N/A   Scattered Clouds
8:47 PM 55.4 °F 41.0 °F 58% 30.01 in 10.0 mi NW 6.9 mph - N/A   Clear
9:15 PM 53.6 °F 41.0 °F 62% 30.02 in 10.0 mi WNW 3.5 mph - N/A   Clear
9:30 PM 55.4 °F 41.0 °F 58% 30.02 in 10.0 mi West 3.5 mph - N/A   Clear
9:50 PM 53.6 °F 41.0 °F 62% 30.02 in 10.0 mi NW 4.6 mph - N/A   Clear
10:15 PM 53.6 °F 41.0 °F 62% 30.03 in 10.0 mi NW 3.5 mph - N/A   Clear
10:30 PM 51.8 °F 41.0 °F 67% 30.03 in 10.0 mi Calm Calm - N/A   Clear
10:50 PM 51.8 °F 41.0 °F 67% 30.03 in 10.0 mi Calm Calm - N/A   Clear
11:15 PM 51.8 °F 41.0 °F 67% 30.04 in 10.0 mi WNW 4.6 mph - N/A   Clear
11:30 PM 50.0 °F 41.0 °F 71% 30.04 in 10.0 mi NW 3.5 mph - N/A   Clear
11:50 PM 50.0 °F 41.0 °F 71% 30.04 in 10.0 mi Calm Calm - N/A   Clear